Wilkes Barre Scranton International Airport
KAVP : rendu visible

Aérodrome :











RETROUVEZ-NOUS SUR...

 
LOGIN :

S'inscrire | Disclaimer

   EN    FR    IT 

 









Légende :    VFR   VFR Marginal   IFR   IFR Intensif   IFR Très Intensif
Visi : 
Plafond : 
>= 8 km
>= 3000ft
5 à 8 km
1000 à 3000 ft
1500m à 5 km
500 à 1000 ft
800 à 1500m
200 à 500 ft
< 800m
< 200 ft
Symboles :   Orages  Brouillard  Fortes neiges  Fortes précipitations  Vent > 20 kt






- Altitude de l'aérodrome : 962 ft
- Code IATA : AVP


KAVP - Wilkes Barre Scranton International

DERNIER METAR :
  • 251554Z 27009KT 240V320 10SM BKN045 BKN050 22/13 A3020 RMK AO2 SLP221 T02170133

METARs EXPIRÉS :
  • 251454Z 31006KT 10SM SCT049 BKN060 21/12 A3021 RMK AO2 SLP223 T02060122 55007
  • 251354Z VRB03KT 10SM FEW025 20/12 A3020 RMK AO2 SLP222 T02000117

TAF KAVP
Valide du 25 à 12h jusqu'au 26 à 12h UTC


251137Z 2512/2612 VRB03KT P6SM BKN040
TEMPO 2512/2514 BKN030
FM251600 19006KT P6SM SCT050
FM260500 VRB03KT P6SM SCT020
FIR KZNY / Amérique du Nord



MET'MAP, la Météo Aéronautique d'un coup d'oeil ! - Copyright ORBIFLY Décembre 2007 - Disclaimer

ORBIFLY MET'MAP TEAM :

Programmation & Développement : Alexandra Zaïnal
Sur une idée originale de : Baudouin d'Aumeries
Assistance à la programmation : Marc-Olivier Méhu
Soutien technique & logistique : Manuel Goepfert

Contact : metmap@orbifly.com




SOURCES & CREDITS :

   NOAA       Earth
Advisory